Location: Los Ranchitos
(37.9930°N, 122.5425°W)
Time: 02:32:38
(UTC+00:00)

ARGOS - Pass Details

Date: 21 September 2020
Orbit: 821 x 834 km, 98.4° (Epoch: 27 October)

Event Time Altitude Azimuth Distance (km) Brightness Sun altitude
Exits shadow 03:02:17 - 149° (SSE) 3,236 5.8 -11.2°
Reaches altitude 10° 03:04:26 10° 143° (SE) 2,411 5.2 -11.7°
Maximum altitude 03:09:31 47° 71° (ENE) 1,085 3.4 -12.6°
Drops below altitude 10° 03:14:38 10° 360° (N) 2,431 5.7 -13.6°
Sets 03:17:04 0° 354° (N) 3,370 6.6 -14.1°
